Regional Weather Roundup
Issued by NWS Charleston, WV

Home | Current Version | Previous Version | Graphics & Text | Print | Product List | Glossary On
Versions: 1 2 3 4 5 6 7 8 9 10 11 12 13 14 15 16 17 18 19 20 21 22 23 24 25 26 27 28 29 30 31 32 33 34 35 36 37 38 39 40 41 42 43 44 45 46 47 48 49 50
000
ASUS41 KRLX 220410
RWRRLX
West Virginia Regional Weather Roundup
National Weather Service Charleston WV
1100 PM EST FRI NOV 21 2014

Note: "fair" indicates few or no clouds below 12,000 feet with no
significant weather and/or obstructions to visibility.

WVZ003-220500-
Northern Panhandle of West Virginia

CITY           SKY/WX    TMP DP  RH WIND       PRES   REMARKS
WHEELING       PTCLDY    20   9  62 SE8       30.42F
$$

WVZ009-220500-
Northwest West Virginia

CITY           SKY/WX    TMP DP  RH WIND       PRES   REMARKS
PARKERSBURG    CLEAR     20  11  68 CALM      30.47F
$$

WVZ006-220500-
Western West Virginia

CITY           SKY/WX    TMP DP  RH WIND       PRES   REMARKS
HUNTINGTON     CLEAR     24  13  62 E3        30.42F
$$

WVZ015-220500-
West Central West Virginia

CITY           SKY/WX    TMP DP  RH WIND       PRES   REMARKS
CHARLESTON     CLEAR     23  13  65 CALM      30.43F
$$

WVZ022-031-220500-
North Central West Virginia

CITY           SKY/WX    TMP DP  RH WIND       PRES   REMARKS
CLARKSBURG     CLEAR     20  11  68 CALM      30.44F
MORGANTOWN     PTCLDY    21   8  57 CALM      30.45F
$$

WVZ025-035-042-045-220500-
Southern West Virginia

CITY           SKY/WX    TMP DP  RH WIND       PRES   REMARKS
BECKLEY        CLEAR     28   7  41 SE8       30.39S
LOGAN            N/A     32   9  37 S3        30.40S
BLUEFIELD      CLEAR     31   1  28 CALM      30.40S
LEWISBURG      CLEAR     20  11  69 CALM      30.43S
$$

WVZ047-220500-
Northern Mountains of West Virginia

CITY           SKY/WX    TMP DP  RH WIND       PRES   REMARKS
ELKINS         PTCLDY    15  12  88 CALM      30.43S
$$

WVZ052-220500-
Eastern Panhandle of West Virginia

CITY           SKY/WX    TMP DP  RH WIND       PRES   REMARKS
MARTINSBURG    PTCLDY    19   9  65 SW3       30.52F
PETERSBURG     PTCLDY    19  12  73 CALM      30.49S
$$


USA.gov is the U.S. government's official web portal to all federal, state and local government web resources and services.